Weather History for Craig, CO

Change the Weather History Date:

Wednesday, September 5, 2012

  Actual Average Record
Temperature  
Mean Temperature 60 °F 60 °F  
Max Temperature 84 °F 78 °F 90 °F (2013)
Min Temperature 35 °F 41 °F 32 °F (1999)
Degree Days  
Heating Degree Days 5 6  
Month to date heating degree days 7 25  
Since 1 July heating degree days 15 102  
Cooling Degree Days 0 0  
Month to date cooling degree days 2 0  
Year to date cooling degree days 344 140  
Growing Degree Days 10 (Base 50)    
Moisture  
Dew Point 29 °F    
Average Humidity 46    
Maximum Humidity 82    
Minimum Humidity 9    
Precipitation  
Precipitation 0.00 in 0.05 in 0.96 in (2007)
Month to date precipitation 0.72 0.27  
Year to date precipitation 3.96 10.33  
Sea Level Pressure  
Sea Level Pressure 30.06 in    
Wind  
Wind Speed 5 mph (WSW)    
Max Wind Speed 18 mph    
Max Gust Speed 24 mph    
Visibility 10 miles    
Events      
T = Trace of Precipitation, MM = Missing Value Source: NWS Daily Summary

Daily Weather History Graph

Daily Weather History Graph

Search for Another Location

Airport:

Trip Planner

Search our weather history database for the weather conditions in past years. The results will help you decide how hot, cold, wet, or windy it might be!

Date:

Astronomy

Sep. 05, 2012 Rise Set
Actual Time 6:41 AM MDT 7:34 PM MDT
Civil Twilight 6:13 AM MDT 8:02 PM MDT
Nautical Twilight 5:40 AM MDT 8:35 PM MDT
Astronomical Twilight 5:06 AM MDT 9:09 PM MDT
Moon 10:05 PM MDT (9/5) 11:49 AM MDT (9/5)
Length of Visible Light 13h 48m
Length of Day
12h 52m
Waning Gibbous, 75% of the Moon is Illuminated
Sep 5
Waning Gibbous
Sep 8
Last Quarter
Sep 15
New
Sep 22
First Quarter
Sep 29
Full

Hourly Weather History & Observations

Time (MDT) Temp. Windchill Dew Point Humidity Pressure Visibility Wind Dir Wind Speed Gust Speed Precip Events Conditions
12:53 AM 52.0 °F - 36.0 °F 54% 30.04 in 10.0 mi Calm Calm - N/A   Clear
1:53 AM 46.9 °F - 30.9 °F 54% 30.06 in 10.0 mi Calm Calm - N/A   Clear
2:53 AM 46.9 °F - 36.0 °F 66% 30.06 in 10.0 mi East 3.5 mph - N/A   Clear
3:53 AM 44.1 °F - 35.1 °F 71% 30.07 in 10.0 mi Calm Calm - N/A   Clear
4:53 AM 41.0 °F - 34.0 °F 76% 30.09 in 10.0 mi Calm Calm - N/A   Clear
5:53 AM 37.9 °F 35.5 °F 32.0 °F 79% 30.12 in 10.0 mi SW 3.5 mph - N/A   Clear
6:53 AM 35.1 °F - 30.9 °F 85% 30.15 in 10.0 mi Calm Calm - N/A   Clear
7:53 AM 45.0 °F - 35.1 °F 68% 30.17 in 10.0 mi Calm Calm - N/A   Clear
8:53 AM 52.0 °F - 34.0 °F 50% 30.15 in 10.0 mi Calm Calm - N/A   Clear
9:53 AM 62.1 °F - 34.0 °F 35% 30.12 in 10.0 mi Calm Calm - N/A   Clear
10:53 AM 71.1 °F - 30.0 °F 22% 30.08 in 10.0 mi NNE 3.5 mph - N/A   Clear
11:53 AM 75.9 °F - 30.9 °F 19% 30.06 in 10.0 mi Calm Calm - N/A   Clear
12:53 PM 82.0 °F - 21.9 °F 11% 30.02 in 10.0 mi West 18.4 mph 23.0 mph N/A   Clear
1:53 PM 82.9 °F - 19.0 °F 9% 30.01 in 10.0 mi West 13.8 mph 20.7 mph N/A   Clear
2:53 PM 82.0 °F - 18.0 °F 9% 29.99 in 10.0 mi WSW 10.4 mph - N/A   Clear
3:53 PM 82.4 °F - 17.6 °F 9% 30.17 in 10.0 mi West 10.4 mph 18.4 mph N/A   Clear
4:53 PM 82.9 °F - 18.0 °F 9% 29.98 in 10.0 mi West 16.1 mph 20.7 mph N/A   Clear
5:53 PM 81.0 °F - 17.1 °F 9% 29.98 in 10.0 mi WSW 12.7 mph - N/A   Clear
6:53 PM 75.9 °F - 21.9 °F 13% 30.00 in 10.0 mi WSW 9.2 mph - N/A   Clear
7:53 PM 64.0 °F - 25.0 °F 23% 30.01 in 10.0 mi South 5.8 mph - N/A   Clear
8:53 PM 64.9 °F - 21.0 °F 19% 30.00 in 10.0 mi Calm Calm - N/A   Clear
9:53 PM 55.9 °F - 33.1 °F 42% 30.01 in 10.0 mi Calm Calm - N/A   Clear
10:53 PM 53.1 °F - 34.0 °F 48% 30.01 in 10.0 mi Calm Calm - N/A   Clear
11:53 PM 46.9 °F - 35.1 °F 63% 30.02 in 10.0 mi Calm Calm - N/A   Clear